(504189) = 2006 TW38

Discovered at Kitt Peak on 2006-10-12 by Spacewatch.

Orbit

Orbit type: Main Belt

Note: WebGL enabled browser required.

epoch2023-09-13.0
epoch JD2460200.5
perihelion date2023-01-29.97908
perihelion JD2459974.47908
argument of perihelion (°)333.28186
ascending node (°)45.82044
inclination (°)2.24837
eccentricity0.1728790
perihelion distance (AU)2.5783920
Tisserand w.r.t. Jupiter3.2
ΔV w.r.t. Earth (km/sec)10.1
semimajor axis (AU)3.1173093
mean anomaly (°)40.47461
mean daily motion (°/day)0.17907460
aphelion distance (AU)3.656
period (years)5.5
P-vector [x]0.94468753
P-vector [y]0.30748889
P-vector [z]0.11408788
Q-vector [x]-0.32676273
Q-vector [y]0.85258279
Q-vector [z]0.40783416
absolute magnitude16.8
phase slope0.15
uncertainty0
referenceMPEC 2023-X193
observations used138
oppositions9
arc length (days)6268
first opposition used2006
last opposition used2023
residual rms (arc-secs)0.79
perturbers coarse indicatorM-v
perturbers precise indicator003Ek
first observation date used2006-10-12.0
last observation date used2023-12-10.0
computer nameMPCLINUX
JD of orbit computation2458058.535842
perihelion JD uncertainty (days)9.6158E-05
argument of perihelion uncertainty (°)1.1731E-04
ascending node uncertainty (°)1.1563E-04
inclination uncertainty (°)6.6523E-06
eccentricity uncertainty 7.1172E-08
perihelion distance uncertainty (AU)2.3115E-07
Minimum Orbit Intersection Distances (in AU)
for orbit epoch: 2460200.5, reference: E2023-XJ3
Mercury2.23513
Venus1.8537
Earth1.58011
Mars1.15014
Jupiter1.79602
Saturn5.86625
Uranus14.852
Neptune27.038

Observations

139 total observations over interval: 2006 10 12.32153 – 2023 12 10.405515
These data are available for download (format description).

